Location: El Diablo
(32.4667°N, 116.4500°W)
Time: 03:05:16
(UTC+00:00)

Cosmos 1726 Rocket - Pass Details

Date: 10 September 2024
Orbit: 599 x 624 km, 82.5° (Epoch: 06 October)

Event Time Altitude Azimuth Distance (km) Brightness Sun altitude
Exits shadow 12:36:19 - 203° (SSW) 2,725 6.5 -11.3°
Reaches altitude 10° 12:38:21 10° 210° (SSW) 1,937 5.7 -10.9°
Maximum altitude 12:42:21 38° 280° (W) 920 4.0 -10.1°
Drops below altitude 10° 12:46:24 10° 349° (N) 1,960 6.1 -9.3°
Sets 12:48:46 0° 357° (N) 2,872 7.1 -8.8°
